Regional Weather Roundup
Issued by NWS

Home | Current Version | Previous Version | Text Only | Print | Product List | Glossary On
Versions: 1 2 3 4 5 6 7 8 9 10 11 12 13 14 15 16 17 18 19 20 21 22 23 24 25 26 27 28 29 30 31 32 33 34 35 36 37 38 39 40 41 42 43 44 45 46 47 48 49 50
000
ASUS43 KDTX 262010
RWRMI
MICHIGAN HOURLY REGIONAL WEATHER ROUNDUP
NATIONAL WEATHER SERVICE DETROIT/PONTIAC MI
300 PM EST WED NOV 26 2014

NOTE: "FAIR" INDICATES FEW OR NO CLOUDS BELOW 12,000 FEET WITH NO
SIGNIFICANT WEATHER AND/OR OBSTRUCTION TO VISIBILITY.

MIZ047>049-052>055-059>063-066>070-074>076-081>083-262100-
SOUTHEAST LOWER MICHIGAN

CITY           SKY/WX    TMP DP  RH WIND       PRES   REMARKS
ADRIAN         CLOUDY    31  23  72 VRB3      30.09F
ALMA           CLOUDY    30  22  71 CALM      30.13S
ANN ARBOR      CLOUDY    32  23  69 CALM      30.09F
BAD AXE        CLOUDY    31  24  76 NW3       30.13S
DETROIT CITY   CLOUDY    36  23  59 NE5       30.10F
DETROIT        CLOUDY    34  24  67 NE5       30.10F
FLINT          CLOUDY    34  21  59 CALM      30.11S
GROSSE ILE     CLOUDY    34  25  69 NE6       30.08F
HILLSDALE      CLOUDY    30  21  69 CALM      30.07S
HOWELL         CLOUDY    31  22  69 CALM      30.08F

CITY           SKY/WX    TMP DP  RH WIND       PRES   REMARKS
JACKSON        CLOUDY    31  22  69 CALM      30.09R
LAMBERTVILLE   CLOUDY    34  25  69 CALM      30.09S
LANSING        CLOUDY    30  20  66 S5        30.12R
LAPEER         NOT AVBL
MASON          CLOUDY    31  21  67 CALM      30.10S
MONROE         CLOUDY    34  27  75 CALM      30.07F
MT. CLEMENS    CLOUDY    34  24  65 E6        30.08F
PONTIAC        CLOUDY    32  21  64 NE6       30.08S
PORT HOPE        N/A     33  24  69 W3        30.11S
PORT HURON     CLOUDY    32  25  74 N5        30.11S
TRI CITIES     CLOUDY    32  21  64 NE3       30.14S
YPSILANTI      CLOUDY    36  24  62 VRB3      30.09F
$$
MIZ043>046-050>051-056>058-064>065-071>073-077>080-262100-
SOUTHWEST LOWER MICHIGAN

CITY           SKY/WX    TMP DP  RH WIND       PRES   REMARKS
BATTLE CREEK   CLOUDY    30  19  63 SW7       30.11R
BENTON HARBOR  CLOUDY    28  19  69 E3        30.12F
BIG RAPIDS     CLOUDY    29  24  81 CALM      30.12R
COLDWATER      CLOUDY    31  22  69 CALM      30.10R
HOLLAND        CLOUDY    31  21  66 SE5       30.13S
GRAND RAPIDS   CLOUDY    29  21  72 E3        30.13R
KALAMAZOO      CLOUDY    29  19  66 CALM      30.12R
MARSHALL       CLOUDY    29  21  71 CALM      30.10R
MUSKEGON       LGT SNOW  31  23  72 CALM      30.14R
$$
MIZ016>042-262100-
NORTHERN LOWER MICHIGAN

CITY           SKY/WX    TMP DP  RH WIND       PRES   REMARKS
ALPENA         CLOUDY    28  23  81 W3        30.15S
BEAVER ISLAND  FLURRIES  30  24  78 CALM      30.13S
BELLAIRE       FLURRIES  28  23  81 CALM      30.15S
CADILLAC       CLOUDY    27  22  82 CALM      30.09R
CHARLEVOIX     CLOUDY    28  22  79 S5        30.16S
FRANKFORT      CLOUDY    29  26  86 CALM      30.13S
GAYLORD        LGT SNOW  24  19  81 CALM      30.10F
GRAYLING       LGT SNOW  27  24  89 CALM      30.12S
HARBOR SPRINGS CLOUDY    28  22  78 S3        30.14S
HOUGHTON LAKE  CLOUDY    26  19  74 W5        30.12S
MANISTEE       CLOUDY    28  23  80 CALM      30.14S
OSCODA         CLOUDY    30  24  77 NW7       30.14R
PELLSTON       CLOUDY    27  21  78 S6        30.15S
TRAVERSE CITY  CLOUDY    30  23  75 S5        30.13S
$$
MIZ007>008-015-262100-
EASTERN UPPER MICHIGAN

CITY           SKY/WX    TMP DP  RH WIND       PRES   REMARKS
KINROSS        CLOUDY    27  27 100 E3        30.15S
MACKINAC ISLAN CLOUDY    28  19  68 S6        30.14F
NEWBERRY       LGT SNOW  26  23  88 SE5       30.13S
S. S. MARIE    LGT SNOW  26  22  84 E5        30.14F FOG
$$
MIZ004>006-011>014-085-262100-
CENTRAL UPPER MICHIGAN

CITY           SKY/WX    TMP DP  RH WIND       PRES   REMARKS
MANISTIQUE     CLOUDY    25  20  81 N5        30.14S
ESCANABA       PTSUNNY   25  16  68 CALM      30.14S
MENOMINEE      PTSUNNY   23  16  74 NW6       30.15S
SAWYER-GWINN   PTSUNNY   23  16  74 SW3       30.10S
$$
MIZ001>003-009>011-084-262100-
WESTERN UPPER MICHIGAN

CITY           SKY/WX    TMP DP  RH WIND       PRES   REMARKS
IRON MOUNTAIN  LGT SNOW  23  17  78 NW7       30.11S
HOUGHTON       LGT SNOW  22  17  81 NE5       30.10R
COPPER HARBOR    N/A     27  24  89 NE23      30.14R
IRONWOOD       CLOUDY    21  19  93 W9        30.11S
$$

ABBREVIATIONS USED IN REMARKS
   TC - TEMPERATURE IN CELSIUS
  WCI - WIND CHILL INDEX
   HX - HEAT INDEX
  VSB - VISIBILITY



USA.gov is the U.S. government's official web portal to all federal, state and local government web resources and services.